Погода в Делфте

Нидерланды     52°00′21″N   4°21′40″E
темп.,
°C
ветер,
м/с
пор.,
м/с
влажн.,
%
обл.,
%
осадки,
мм/ч
давл.,
гПа
погр.,
м
26 февраля, пт
пт2601:00+8ссз3582100 0.0 1031287
04:00+8ссз3678100 0.0 1032299
07:00+7ссз367759 0.0 1033197
10:00+7ссз36730 0.0 1035377
13:00+8сз46630 0.0 1036587
16:00+8сз57680 0.0 1035617
19:00+7ссз36770 0.0 1037332
22:00+6ссз35790 0.0 1038248
27 февраля, сб
сб2701:00+6ссз23800 0.0 103998
04:00+5ссз12810 0.0 103922
07:00+5ссз22810 0.0 104035
10:00+7с12710 0.0 1040175
13:00+9ссз22560 0.0 1041468
16:00+9ссз34610 0.0 1040332
19:00+7с35750 0.0 1039199
22:00+7ссв23780 0.0 1040120
28 февраля, вс
вс2801:00+6св12790 0.0 104030
04:00+5св12810 0.0 103827
07:00+5всв22830 0.0 103851
10:00+7св23730 0.0 1037168
13:00+10св23610 0.0 1037514
16:00+10ссв34616 0.0 1036550
19:00+8св357120 0.0 1035161
22:00+7всв367922 0.0 1035205
1 марта, пн
пн101:00+6в358417 0.0 1036160
04:00+6всв368894 0.0 1034175
07:00+5в368982 0.0 1034197
10:00+6в368020 0.0 1034258
13:00+10всв466117 0.0 1033506
16:00+11всв47560 0.0 1031503
19:00+9в49650 0.0 1031375
22:00+8в48700 0.0 1031256
2 марта, вт
вт201:00+7в36770 0.0 1030167
04:00+6в34820 0.0 1029117
07:00+5в35850 0.0 1028121
10:00+7вюв35760 0.0 1028205
13:00+11вюв24620 0.0 1028421
16:00+12ююв12550 0.0 1027684
19:00+10сз11660 0.0 102729
22:00+8юв11700 0.0 102824